DW4974 Weather Reports


time (UTC)temp
C
wind
direction
speed
KPH
gust
KPH
rain 1hr
cm
rain 24hr
cm
rain mn
cm
humidity
%
barometer
mb
20260906202524 38 360 12.9 17.7 0.00 0.00 0.00 32 1012.1
20260906201530 38 360 3.2 12.9 0.00 0.00 0.00 32 1012.3
20260906200524 38 360 3.2 19.3 0.00 0.00 0.00 33 1012.4
20260906195530 38 360 1.6 22.5 0.00 0.00 0.00 33 1012.5
20260906194533 38 360 0.0 11.3 0.00 0.00 0.00 32 1012.7
20260906193530 38 360 6.4 16.1 0.00 0.00 0.00 32 1012.8
20260906192538 38 360 3.2 19.3 0.00 0.00 0.00 33 1012.9
20260906191523 38 360 4.8 17.7 0.00 0.00 0.00 33 1013.1
20260906190533 38 360 3.2 16.1 0.00 0.00 0.00 33 1013.3
20260906185536 38 360 3.2 12.9 0.00 0.00 0.00 35 1013.5
20260906184524 38 360 0.0 11.3 0.00 0.00 0.00 34 1013.8
20260906183543 37 360 1.6 12.9 0.00 0.00 0.00 34 1013.9
20260906182534 37 360 3.2 9.7 0.00 0.00 0.00 34 1014.1
20260906181537 37 360 3.2 14.5 0.00 0.00 0.00 35 1014.3
20260906180527 38 360 1.6 8.0 0.00 0.00 0.00 35 1014.5
20260906175535 38 360 0.0 1.6 0.00 0.00 0.00 35 1014.6
20260906174558 37 360 0.0 12.9 0.00 0.00 0.00 36 1014.8
20260906173551 37 360 3.2 6.4 0.00 0.00 0.00 35 1015.0
20260906172529 37 360 0.0 9.7 0.00 0.00 0.00 37 1015.1
20260906171542 36 360 1.6 8.0 0.00 0.00 0.00 37 1015.2
20260906170633 36 360 1.6 6.4 0.00 0.00 0.00 36 1015.4
20260906165551 36 360 0.0 4.8 0.00 0.00 0.00 37 1015.6
20260906164538 36 360 1.6 6.4 0.00 0.00 0.00 40 1015.6
20260906163517 36 360 1.6 3.2 0.00 0.00 0.00 41 1015.6
20260906162531 35 360 0.0 4.8 0.00 0.00 0.00 41 1015.5
20260906161539 35 360 0.0 1.6 0.00 0.00 0.00 42 1015.5
20260906160637 35 360 0.0 1.6 0.00 0.00 0.00 41 1015.5
20260906155526 35 360 0.0 6.4 0.00 0.00 0.00 43 1015.4
20260906154517 34 360 0.0 3.2 0.00 0.00 0.00 44 1015.4
20260906153521 34 360 0.0 4.8 0.00 0.00 0.00 44 1015.5
20260906152529 33 360 0.0 0.0 0.00 0.00 0.00 45 1015.5
20260906151536 33 360 0.0 1.6 0.00 0.00 0.00 47 1015.6
20260906150549 32 360 0.0 0.0 0.00 0.00 0.00 47 1015.6
20260906145535 32 360 0.0 0.0 0.00 0.00 0.00 49 1015.6
20260906144528 31 360 0.0 1.6 0.00 0.00 0.00 57 1015.5
20260906143551 30 360 0.0 0.0 0.00 0.00 0.00 59 1015.6
20260906142518 29 360 0.0 0.0 0.00 0.00 0.00 63 1015.5
20260906141531 28 360 0.0 0.0 0.00 0.00 0.00 67 1015.5
20260906140524 27 360 0.0 1.6 0.00 0.00 0.00 73 1015.3
20260906135534 25 360 0.0 0.0 0.00 0.00 0.00 77 1015.2
20260906134520 25 360 0.0 0.0 0.00 0.00 0.00 79 1015.1
20260906133533 24 360 0.0 1.6 0.00 0.00 0.00 80 1015.1
20260906132552 23 360 0.0 0.0 0.00 0.00 0.00 81 1015.0
20260906131533 23 360 0.0 0.0 0.00 0.00 0.00 81 1014.8
20260906130552 22 360 0.0 0.0 0.00 0.00 0.00 81 1014.8
20260906125546 22 360 0.0 0.0 0.00 0.00 0.00 81 1014.6
20260906124516 22 360 0.0 1.6 0.00 0.00 0.00 81 1014.5
20260906123527 22 360 0.0 0.0 0.00 0.00 0.00 81 1014.3
20260906122532 22 360 0.0 0.0 0.00 0.00 0.00 80 1014.3
20260906121521 22 360 0.0 0.0 0.00 0.00 0.00 80 1014.1
20260906120535 22 360 0.0 0.0 0.00 0.00 0.00 80 1013.9
20260906115518 22 360 0.0 1.6 0.00 0.00 0.00 80 1013.7
20260906114520 22 360 0.0 0.0 0.00 0.00 0.00 80 1013.7
20260906113554 22 360 0.0 0.0 0.00 0.00 0.00 79 1013.7
20260906112519 22 360 0.0 0.0 0.00 0.00 0.00 78 1013.6
20260906111530 22 360 0.0 0.0 0.00 0.00 0.00 78 1013.5
20260906110537 22 360 0.0 0.0 0.00 0.00 0.00 78 1013.6
20260906105523 22 360 0.0 0.0 0.00 0.00 0.00 76 1013.6
20260906104531 22 360 0.0 0.0 0.00 0.00 0.00 76 1013.5
20260906103515 23 360 0.0 0.0 0.00 0.00 0.00 75 1013.5
20260906102537 23 360 0.0 0.0 0.00 0.00 0.00 75 1013.4
20260906101525 23 360 0.0 1.6 0.00 0.00 0.00 75 1013.4
20260906100539 23 360 0.0 1.6 0.00 0.00 0.00 74 1013.4
20260906095518 23 360 0.0 0.0 0.00 0.00 0.00 74 1013.4
20260906094557 23 360 0.0 1.6 0.00 0.00 0.00 74 1013.3
20260906093534 23 360 0.0 0.0 0.00 0.00 0.00 74 1013.3
20260906092528 23 360 0.0 1.6 0.00 0.00 0.00 73 1013.3
20260906091533 23 360 0.0 0.0 0.00 0.00 0.00 73 1013.3
20260906090555 23 360 0.0 3.2 0.00 0.00 0.00 73 1013.3
20260906085527 23 360 0.0 0.0 0.00 0.00 0.00 72 1013.2
20260906084532 24 360 0.0 0.0 0.00 0.00 0.00 72 1013.1
20260906083518 24 360 0.0 0.0 0.00 0.00 0.00 71 1013.0
20260906082555 24 360 0.0 1.6 0.00 0.00 0.00 71 1012.9
20260906081527 24 360 0.0 0.0 0.00 0.00 0.00 71 1013.1
20260906080531 24 360 0.0 1.6 0.00 0.00 0.00 70 1013.1
20260906075535 25 360 0.0 0.0 0.00 0.00 0.00 71 1013.0
20260906074526 25 360 0.0 0.0 0.00 0.00 0.00 70 1013.0
20260906073530 25 360 0.0 0.0 0.00 0.00 0.00 70 1013.0
20260906072521 25 360 0.0 0.0 0.00 0.00 0.00 70 1012.8
20260906071557 25 360 0.0 0.0 0.00 0.00 0.00 70 1012.9
20260906070536 25 360 0.0 0.0 0.00 0.00 0.00 70 1012.9
20260906065525 25 360 0.0 0.0 0.00 0.00 0.00 69 1012.9
20260906064519 25 360 0.0 0.0 0.00 0.00 0.00 69 1012.9
20260906063528 25 360 0.0 0.0 0.00 0.00 0.00 68 1012.9
20260906062537 25 360 0.0 0.0 0.00 0.00 0.00 67 1012.9
20260906061528 26 360 0.0 0.0 0.00 0.00 0.00 66 1012.9
20260906060521 26 360 0.0 0.0 0.00 0.00 0.00 66 1012.9
20260906055530 26 360 0.0 0.0 0.00 0.00 0.00 66 1012.8
20260906054528 26 360 0.0 0.0 0.00 0.00 0.00 66 1012.9
20260906053541 26 360 0.0 0.0 0.00 0.00 0.00 66 1012.9
20260906052522 26 360 0.0 0.0 0.00 0.00 0.00 66 1013.0
20260906051519 26 360 0.0 0.0 0.00 0.00 0.00 66 1013.1
20260906050607 26 360 0.0 0.0 0.00 0.00 0.00 66 1013.1
20260906045529 26 360 0.0 0.0 0.00 0.00 0.00 65 1013.1
20260906044541 26 360 0.0 0.0 0.00 0.00 0.00 64 1013.2
20260906043523 26 360 0.0 0.0 0.00 0.00 0.00 63 1013.1
20260906042516 26 360 0.0 0.0 0.00 0.00 0.00 62 1013.0
20260906041557 27 360 0.0 0.0 0.00 0.00 0.00 61 1012.9
20260906040552 27 360 0.0 0.0 0.00 0.00 0.00 60 1013.0
20260906035534 28 360 0.0 0.0 0.00 0.00 0.00 58 1013.0
20260906034521 28 360 0.0 0.0 0.00 0.00 0.00 57 1013.0
20260906033532 28 360 0.0 0.0 0.00 0.00 0.00 57 1012.8
20260906032520 28 360 0.0 0.0 0.00 0.00 0.00 58 1012.9
20260906031532 28 360 0.0 0.0 0.00 0.00 0.00 58 1012.8
20260906030535 28 360 0.0 0.0 0.00 0.00 0.00 57 1012.7
20260906025514 28 360 0.0 0.0 0.00 0.00 0.00 56 1012.8
20260906024524 28 360 0.0 0.0 0.00 0.00 0.00 55 1012.7
20260906023530 28 360 0.0 0.0 0.00 0.00 0.00 56 1012.4
20260906022551 28 360 0.0 0.0 0.00 0.00 0.00 56 1012.3
20260906021548 28 360 0.0 0.0 0.00 0.00 0.00 55 1012.1
20260906020533 28 360 0.0 0.0 0.00 0.00 0.00 54 1012.0
20260906015530 28 360 0.0 0.0 0.00 0.00 0.00 54 1011.8
20260906014536 29 360 0.0 0.0 0.00 0.00 0.00 54 1011.5
20260906013522 29 360 0.0 0.0 0.00 0.00 0.00 53 1011.4
20260906012533 30 360 0.0 0.0 0.00 0.00 0.00 51 1011.3
20260906011518 31 360 0.0 0.0 0.00 0.00 0.00 49 1011.3
20260906010546 31 360 0.0 0.0 0.00 0.00 0.00 47 1011.2
20260906005534 32 360 0.0 0.0 0.00 0.00 0.00 45 1011.1
20260906004517 33 360 0.0 0.0 0.00 0.00 0.00 43 1011.2
20260906003523 34 360 0.0 4.8 0.00 0.00 0.00 41 1011.3
20260906002535 35 360 0.0 3.2 0.00 0.00 0.00 40 1011.3
20260906001519 36 360 0.0 1.6 0.00 0.00 0.00 39 1011.6
20260906000525 36 360 0.0 9.7 0.00 0.00 0.00 37 1011.4
20260905235530 36 360 0.0 8.0 0.00 0.00 0.00 36 1011.4
20260905234535 36 360 1.6 8.0 0.00 0.00 0.00 36 1011.4
20260905233548 37 360 0.0 6.4 0.00 0.00 0.00 35 1011.3
20260905232530 37 360 0.0 11.3 0.00 0.00 0.00 34 1011.2
20260905231535 37 360 0.0 1.6 0.00 0.00 0.00 34 1011.1
20260905230525 37 360 0.0 14.5 0.00 0.00 0.00 33 1011.1
20260905225529 37 360 4.8 12.9 0.00 0.00 0.00 34 1011.0
20260905224544 37 360 1.6 16.1 0.00 0.00 0.00 33 1011.0
20260905223527 37 360 8.0 17.7 0.00 0.00 0.00 32 1010.9
20260905222534 37 360 9.7 16.1 0.00 0.00 0.00 33 1010.9
20260905221550 37 360 0.0 14.5 0.00 0.00 0.00 32 1010.9
20260905220526 37 360 1.6 19.3 0.00 0.00 0.00 33 1011.0
20260905215528 38 360 0.0 19.3 0.00 0.00 0.00 34 1011.0
20260905214538 37 360 3.2 16.1 0.00 0.00 0.00 33 1011.1
20260905213522 38 157 9.7 19.3 0.00 0.00 0.00 33 1011.2
20260905212522 38 360 8.0 20.9 0.00 0.00 0.00 33 1011.3
20260905211529 38 360 3.2 22.5 0.00 0.00 0.00 34 1011.5
20260905210557 38 360 8.0 19.3 0.00 0.00 0.00 33 1011.7
20260905205526 38 360 8.0 17.7 0.00 0.00 0.00 34 1011.8
20260905204520 38 360 1.6 16.1 0.00 0.00 0.00 34 1012.1
20260905203529 38 360 4.8 16.1 0.00 0.00 0.00 32 1012.2